Location: Lecco
(45.8566°N, 9.3977°E)
Time: 20:17:46
(UTC+02:00)

S-56A Canister/Altair - Pass Details

Date: 26 July 2019
Orbit: 633 x 2499 km, 38.9° (Epoch: 23 August)

Event Time Altitude Azimuth Distance (km) Brightness Sun altitude
Rises 09:08:14 0° 262° (W) 5,042 11.2 31.0°
Reaches altitude 10° 09:11:12 10° 259° (W) 4,266 10.9 31.5°
Maximum altitude 09:23:16 65° 181° (S) 2,499 10.7 33.6°
Drops below altitude 10° 09:38:10 10° 105° (ESE) 5,155 13.1 36.2°
Sets 09:42:09 0° 103° (ESE) 6,118 13.1 36.8°
